User: anonymous   Login
Location: Unspecified
(0.0000°N, 0.0000°E)
Time: 02:59:01
(UTC+00:00)
Language:

TBA - TO BE ASSIGNED - Orbit

View from above orbital plane
View from above orbital plane
View from above satellite
View from above satellite

Ground track
Ground track

The orbit is defined by the following mean orbital elements,

1 68653U          26145.21513278 +.00000000 +00000-0 +43181-4 0 00009
2 68653  88.9868 323.3334 0010808  67.2826 292.9476 13.67484062    06
Epoch (UTC): 25 May 2026 05:09:47
Eccentricity: 0.0010808
inclination: 88.9868°
perigee height: 1001 km
apogee height: 1017 km
right ascension of ascending node: 323.3334°
argument of perigee: 67.2826°
revolutions per day: 13.67484062
mean anomaly at epoch: 292.9476°

The dashed part of the orbit path shows where the satellite is in the earth's shadow,  

DLR